CAPE
0 0 0 0 0 0 0 0 0 0 0 0 13 548 0 0 0 0 1222 1795 1241 580 235 187 501 850 809 481 209 38 2 52 329 236 154 323 114 98 4 9 7 0 0 0 25 151 290 599 538
0 0 0 0 0 0 0 0 0 0 0 0 5 814 350 228 0 112 1639 1272 1266 651 134 110 234 933 916 696 375 111 0 77 281 212 250 349 126 0 0 48 70 7 0 4 133 216 290 721 665
0 0 0 0 0 0 0 0 0 0 0 0 5 826 224 830 1464 213 1881 1380 798 331 250 335 534 906 957 825 554 282 29 49 137 180 264 282 130 0 0 123 75 24 0 24 127 149 402 820 761
0 0 0 0 0 0 0 0 0 0 0 0 250 697 1562 2395 2243 2144 1494 1211 689 223 838 190 461 850 1006 934 784 566 278 94 105 168 313 329 155 0 0 34 72 0 0 34 91 183 671 891 745
0 0 0 0 0 0 0 0 0 0 0 0 329 815 1880 2139 2090 1840 1587 1252 544 483 794 247 416 582 718 869 791 628 303 138 107 142 201 300 196 23 0 0 83 9 0 12 77 311 870 1065 618
0 0 0 0 0 0 0 0 0 0 0 31 509 377 484 2255 2118 2067 1832 1347 899 1036 146 194 372 490 726 871 794 602 241 115 109 123 152 275 195 96 16 0 17 3 0 10 91 486 970 819 596
0 0 0 0 0 0 0 0 0 0 0 1 108 215 1892 2180 1597 1587 1574 1418 1361 699 111 53 261 553 646 752 762 631 483 303 354 291 113 90 112 115 22 30 38 0 0 0 86 619 842 709 518
0 0 0 0 0 0 0 0 0 0 0 0 0 59 1113 1827 941 1301 1306 1392 1413 1091 705 133 13 286 546 712 758 716 657 597 534 424 215 87 36 76 29 0 0 0 0 0 86 727 854 653 423
0 0 0 0 0 0 0 0 0 0 0 0 0 0 659 1432 1515 1384 949 950 868 1400 1506 942 440 59 1 68 667 599 587 558 449 375 254 68 7 35 51 0 4 0 0 0 65 758 820 620 409
0 0 0 0 0 0 0 0 0 0 0 0 0 0 8 264 713 518 644 587 696 824 1192 1565 1356 798 448 262 372 97 365 433 319 255 281 0 0 118 150 0 0 0 0 0 26 588 752 575 463
0 0 0 0 0 0 0 0 0 0 0 0 0 0 0 0 2 0 10 19 143 526 468 1008 1425 1139 1158 1340 622 97 199 57 101 34 188 0 0 211 175 36 0 0 0 0 0 59 589 548 834
0 0 0 0 0 0 0 0 0 0 0 0 0 0 0 0 0 0 0 0 0 0 602 846 1172 210 202 2402 1830 859 561 252 70 21 148 103 0 61 147 144 41 0 0 0 0 0 29 319 884
0 0 0 0 0 0 0 0 0 0 0 0 0 0 0 0 0 0 0 0 0 0 0 1456 1452 1323 1309 2886 3069 1893 1597 765 549 223 261 336 217 114 133 304 322 14 5 0 0 0 10 64 501
0 0 0 0 0 0 0 0 0 0 0 0 0 0 0 0 0 0 0 0 0 0 0 0 1375 2570 2365 1826 1826 1951 555 1999 695 148 443 946 1027 708 489 238 279 210 161 41 8 61 9 59 191
0 0 0 0 0 0 0 0 0 0 0 0 0 0 0 0 0 0 0 0 0 0 0 0 215 1298 1093 876 1460 1036 1226 1347 1044 249 0 85 1308 1426 626 558 378 284 398 123 152 148 47 49 31
0 0 0 0 0 0 0 0 0 0 0 0 0 0 0 0 0 0 0 0 0 0 0 0 0 1234 1215 1135 1166 1177 938 1541 2018 286 0 26 1233 1507 828 526 495 470 529 507 231 133 134 109 98
0 0 0 0 0 0 0 0 0 0 0 0 0 0 0 0 0 0 0 0 0 0 0 0 0 657 1424 1485 1657 1731 1409 1395 1832 1591 98 282 635 1384 967 680 432 861 978 1072 863 585 369 266 294
0 0 0 0 0 0 0 0 0 0 0 0 0 0 0 0 0 0 0 0 0 0 0 0 1 176 1441 1585 1975 1046 1297 989 2111 1414 385 0 0 1068 1244 1427 1037 1196 1052 1132 1270 951 765 468 553
0 0 0 0 0 0 0 0 0 0 0 0 0 0 0 0 0 0 0 0 0 0 0 0 34 79 1262 1534 1387 528 257 415 356 1345 421 114 822 1303 1354 1427 1116 1032 1038 986 852 892 796 805 1012
0 0 0 0 0 0 0 0 0 0 0 0 0 0 0 0 0 0 0 0 0 0 21 0 96 431 1489 1343 451 121 40 57 15 562 1025 1326 761 1230 1364 1223 1206 1296 1480 1427 870 797 570 439 566
0 0 0 0 0 0 0 0 0 0 0 0 0 0 0 0 0 0 0 0 0 1 18 43 33 1606 1669 754 658 377 740 19 17 81 41 56 549 1125 1071 1249 985 1205 1075 1046 1084 842 809 681 405
0 0 0 0 0 0 0 0 0 0 0 0 0 0 0 0 0 0 0 0 0 0 25 37 214 2185 1828 1678 940 361 361 97 3 2 25 675 417 522 1102 1146 1539 1491 1555 1487 988 1151 1191 1298 966
0 0 0 0 0 0 0 0 0 0 0 0 0 0 0 0 0 0 0 0 0 0 35 143 834 2226 2384 1499 1888 744 765 263 221 192 321 671 936 610 659 1233 1719 1637 1516 1386 1319 1069 1192 1442 1313
0 0 0 0 0 0 0 0 0 0 0 0 0 0 0 0 0 0 0 0 0 0 53 328 348 1470 2481 2161 1213 2011 1133 777 833 15 613 574 348 296 487 731 998 1398 1520 1569 1472 1240 1054 1199 1213
0 0 0 1 10 0 1 18 0 0 0 0 0 0 0 0 0 0 0 0 1 5 0 358 753 1750 2195 2889 2502 1385 2252 1363 793 1056 773 455 144 541 1031 1132 1150 1258 1477 1534 1456 1406 1258 1194 1096
7 19 8 9 8 12 1 0 0 10 26 3 0 0 0 0 0 0 0 0 0 15 78 87 515 779 1159 1590 2136 2476 2723 2194 1903 1234 791 305 83 94 220 404 709 907 984 1113 1305 1268 1267 1240 1208
1 21 34 28 7 38 0 0 0 0 36 14 0 0 0 0 0 0 0 0 0 7 143 373 668 906 1001 1010 1143 1330 1596 1284 817 772 446 332 139 16 13 46 125 341 586 655 816 1076 1005 1128 1060
0 2 19 31 10 7 0 0 0 12 19 5 0 0 0 0 3 0 0 10 10 24 24 95 406 626 610 822 1042 1169 1299 1148 952 1138 680 303 92 2 43 19 20 65 130 227 416 633 932 877 812
0 2 26 34 21 39 2 0 0 27 7 23 13 0 0 0 1 13 10 8 1 1 4 9 0 6 240 446 518 639 907 927 762 759 564 395 242 214 93 20 0 0 13 58 123 204 583 469 533
0 0 0 15 3 15 37 3 4 76 162 2 2 2 0 0 4 31 20 12 0 0 0 0 1 0 0 9 121 322 440 708 697 589 543 500 349 237 117 38 0 0 0 0 0 3 37 145 509
CIN
0 0 0 0 0 0 0 0 0 0 0 0 -45 -6 0 0 -4 0 -91 -8 -113 -258 -425 -444 -378 -266 -285 -348 -414 -585 -694 -463 -305 -304 -294 -226 -271 -254 -295 -120 -45 0 0 0 -125 -128 -72 -19 -19
0 0 0 0 0 0 0 0 0 0 0 0 -4 -17 -87 -133 0 -158 -57 -23 -141 -272 -441 -498 -467 -288 -291 -307 -354 -453 0 -449 -304 -321 -265 -217 -257 0 0 -250 -231 -53 0 -31 -158 -118 -78 -20 -19
0 0 0 0 0 0 0 0 0 0 0 0 -2 -65 -265 -82 -82 -174 -6 -90 -193 -313 -374 -448 -403 -316 -293 -285 -322 -369 -494 -432 -358 -327 -263 -222 -279 0 0 -219 -231 -261 0 -216 -155 -143 -73 -19 -21
0 0 0 0 0 0 0 0 0 0 0 0 -9 -11 -31 -5 -2 -2 -16 -106 -190 -288 -280 -512 -420 -326 -280 -280 -273 -292 -344 -379 -350 -308 -230 -208 -255 0 0 -252 -228 0 0 -225 -176 -136 -39 -21 -27
0 0 0 0 0 0 0 0 0 0 0 0 -15 -79 -11 -1 -6 -4 -13 -51 -151 -191 -299 -470 -422 -362 -325 -285 -265 -265 -312 -351 -331 -293 -266 -205 -245 -336 -1 0 -224 -47 0 -75 -193 -113 -29 -12 -38
0 0 0 0 0 0 0 0 0 0 0 -5 -9 -83 -185 -4 -1 -4 -3 -11 -63 -158 -398 -466 -425 -371 -317 -273 -255 -256 -317 -338 -301 -287 -253 -199 -225 -274 -304 0 -186 -24 0 -79 -188 -95 -30 -36 -46
0 0 0 0 0 0 0 0 0 0 0 -2 -6 -12 -3 -4 -3 -3 -3 -2 -27 -153 -330 -451 -407 -332 -306 -276 -259 -251 -237 -255 -221 -220 -253 -245 -244 -244 -310 -260 -235 0 0 0 -191 -68 -41 -47 -58
0 0 0 0 0 0 0 0 0 0 0 0 0 -16 -8 -13 -10 -8 -3 -2 -2 -78 -175 -331 -452 -348 -293 -259 -243 -220 -195 -180 -171 -172 -208 -234 -255 -241 -295 0 0 0 0 0 -173 -55 -39 -51 -78
0 0 0 0 0 0 0 0 0 0 0 0 0 0 -17 -23 -12 -4 -4 -10 -24 -16 -106 -142 -222 -211 -22 -235 -231 -222 -194 -170 -163 -173 -190 -211 -74 -235 -254 0 -41 0 0 0 -180 -50 -45 -65 -81
0 0 0 0 0 0 0 0 0 0 0 0 0 0 -41 -59 -21 -3 -2 -2 -8 -8 -39 -17 -39 -117 -115 -190 -223 -218 -232 -207 -196 -180 -173 0 0 -135 -134 0 0 0 0 0 -225 -63 -47 -60 -72
0 0 0 0 0 0 0 0 0 0 0 0 0 0 0 0 -18 0 -3 -10 -2 -39 -118 -67 -48 -105 -10 -35 -230 -219 -200 -256 -247 -254 -186 0 0 -37 -69 -167 0 0 0 0 0 -179 -60 -52 -22
0 0 0 0 0 0 0 0 0 0 0 0 0 0 0 0 0 0 0 0 0 0 -14 -88 -50 -168 -58 -35 -15 -99 -118 -195 -244 -174 -176 -122 0 -32 -44 -89 -136 0 0 0 0 0 -119 -54 -14
0 0 0 0 0 0 0 0 0 0 0 0 0 0 0 0 0 0 0 0 0 0 0 -38 -86 -85 -52 -29 -16 -10 -23 -38 -53 -81 -128 -96 -77 -49 -18 -7 -23 -147 -52 0 0 0 -78 -52 -13
0 0 0 0 0 0 0 0 0 0 0 0 0 0 0 0 0 0 0 0 0 0 0 0 -21 -22 -18 -54 -28 -27 -124 -31 -74 -77 -1 -11 -14 -16 -21 -37 -8 -26 -28 -77 -40 -10 -5 -39 -9
0 0 0 0 0 0 0 0 0 0 0 0 0 0 0 0 0 0 0 0 0 0 0 0 -6 -28 -27 -30 -38 -41 -37 -6 -85 -99 0 -260 -8 -2 -9 -21 -15 -17 -5 -8 -9 -4 -23 -34 -64
0 0 0 0 0 0 0 0 0 0 0 0 0 0 0 0 0 0 0 0 0 0 0 0 0 -27 -34 -34 -31 -26 -27 -9 -12 -50 0 -45 -28 -3 -37 -47 -36 -27 -11 -6 -9 -8 -7 -32 -40
0 0 0 0 0 0 0 0 0 0 0 0 0 0 0 0 0 0 0 0 0 0 0 0 0 -18 -36 -33 -18 -2 -2 -9 -7 -8 -120 -106 -25 -4 -12 -31 -40 -12 -15 -11 -7 -5 -7 -9 -10
0 0 0 0 0 0 0 0 0 0 0 0 0 0 0 0 0 0 0 0 0 0 0 0 -56 -19 -20 -36 -14 -23 -7 -8 -12 -32 -74 0 0 -11 -17 -4 -13 -16 -22 -20 -16 -24 -10 -12 -12
0 0 0 0 0 0 0 0 0 0 0 0 0 0 0 0 0 0 0 0 0 0 0 0 -238 -170 -19 -28 -17 -17 -8 -9 -4 -11 -79 -72 -67 -8 -8 -6 -12 -16 -17 -18 -19 -29 -25 -19 -6
0 0 0 0 0 0 0 0 0 0 0 0 0 0 0 0 0 0 0 0 0 0 -257 0 -165 -72 -19 -19 -30 -38 -27 -77 -7 -12 -33 -12 -24 -3 -6 -10 -2 -8 -5 -17 -33 -30 -41 -45 -40
0 0 0 0 0 0 0 0 0 0 0 0 0 0 0 0 0 0 0 0 0 -91 -259 -259 -229 -21 -25 -34 -23 -12 -12 -12 -11 -16 -26 -28 -15 -5 -4 -11 -7 -5 -20 -18 -28 -36 -30 -27 -31
0 0 0 0 0 0 0 0 0 0 0 0 0 0 0 0 0 0 0 0 0 0 -287 -254 -124 -7 -36 -23 -20 -25 -15 -19 -3 -4 -14 -17 -11 -9 -3 -5 -3 -3 -7 -6 -9 -18 -20 -14 -21
0 0 0 0 0 0 0 0 0 0 0 0 0 0 0 0 0 0 0 0 0 0 -251 -178 -47 -9 -28 -42 -14 -17 -24 -22 -12 -9 -16 -19 -10 -14 -10 -5 -1 -5 -9 -9 -6 -8 -17 -15 -8
0 0 0 0 0 0 0 0 0 0 0 0 0 0 0 0 0 0 0 0 0 0 -160 -94 -87 -39 -13 -42 -42 -16 -23 -19 -7 -13 -24 -23 -29 -30 -19 -17 -21 -9 -13 -8 -9 -13 -17 -18 -17
0 0 0 -1 -4 0 -3 -20 0 0 0 0 0 0 0 0 0 0 0 0 -36 -84 0 -51 -73 -39 -19 -5 -34 -36 -12 -26 -22 -14 -11 -16 -24 -14 -22 -16 -10 -16 -9 -10 -7 -8 -12 -14 -21
-14 -16 -17 -28 -17 -27 -2 -1 0 -26 -18 -68 0 0 0 0 0 0 0 0 0 -120 -90 -90 -107 -110 -72 -47 -42 -40 -13 -29 -40 -41 -32 -39 -37 -25 -23 -27 -23 -22 -17 -13 -4 -7 -11 -13 -12
-4 -4 -7 -8 -6 -8 0 0 0 0 -19 -41 0 0 0 0 0 0 0 0 -2 -37 -33 -35 -68 -80 -88 -88 -83 -82 -73 -58 -60 -47 -53 -47 -58 -87 -85 -87 -71 -60 -46 -45 -23 -7 -9 -8 -9
0 -4 -7 -6 -5 -5 0 0 0 -17 -41 -77 0 0 0 -2 -4 -3 -1 -6 -8 -11 -52 -9 -21 -49 -67 -55 -61 -61 -69 -65 -63 -40 -56 -72 -78 -47 -102 -132 -125 -114 -98 -86 -62 -38 -5 -3 -9
0 -3 -8 -9 -23 -16 -15 0 0 -8 -53 -79 -81 -52 0 0 -6 -10 -8 -13 -4 -5 -7 -17 0 -5 -12 -27 -40 -52 -57 -72 -77 -51 -72 -76 -83 -93 -118 -127 0 0 -45 -132 -117 -91 -40 -24 -11
0 0 0 -3 -15 -23 -19 -7 -106 -91 -14 -24 -130 -46 -3 0 -5 -11 -7 -24 0 -3 0 -1 -14 0 -1 -16 -11 -24 -29 -30 -65 -75 -83 -96 -99 -105 -111 -116 0 0 0 0 0 -9 -165 -72 -6
Wind_Speed
23 22 22 22 22 24 26 28 16 16 20 18 21 21 11 20 14 8 21 10 19 13 12 17 16 14 15 14 13 13 14 15 15 13 13 13 14 14 15 16 18 18 19 20 21 22 22 22 23
23 24 25 22 22 25 25 13 15 21 16 20 22 15 16 25 11 12 17 19 13 14 17 15 15 15 13 13 14 13 13 13 13 15 14 14 14 13 14 15 16 17 18 19 20 21 22 22 22
23 24 23 19 25 29 26 14 15 17 22 24 20 15 18 4 23 25 28 20 16 15 16 15 14 13 14 15 15 13 12 11 11 12 13 13 14 14 14 14 15 16 17 18 18 19 20 20 21
18 19 23 24 31 28 26 17 21 25 21 23 21 16 15 14 19 22 23 20 19 18 17 16 15 15 14 13 11 11 11 9 9 9 10 11 11 12 13 13 14 15 15 16 17 18 18 18 19
25 23 29 31 30 30 18 19 20 23 18 18 17 16 19 17 16 16 17 16 14 14 14 14 14 13 13 12 11 10 10 8 7 7 8 8 9 10 11 12 12 13 14 14 16 16 16 16 17
18 23 29 31 32 26 17 20 25 23 18 15 10 11 11 11 12 11 12 12 14 12 12 11 10 10 10 10 9 9 8 7 6 5 5 6 7 8 9 10 11 12 12 13 14 15 15 15 15
30 29 30 31 32 16 19 17 21 18 17 17 17 10 8 5 3 12 10 10 10 11 9 9 8 7 8 8 7 7 6 5 4 4 4 4 5 6 7 8 9 10 11 12 13 13 13 13 14
27 31 33 33 32 21 12 16 21 17 14 14 13 13 4 6 12 15 9 8 8 8 8 6 5 5 5 6 5 5 4 4 3 3 3 3 4 4 5 6 7 8 9 10 11 11 10 11 12
12 32 32 31 33 24 9 17 13 19 18 16 14 15 7 7 6 5 5 5 4 3 3 3 4 4 4 5 5 5 5 4 3 3 2 2 4 4 4 4 5 6 8 8 9 10 9 9 10
25 31 30 29 25 17 8 11 13 16 21 13 13 11 10 6 6 4 2 4 6 6 8 5 6 4 5 4 5 4 5 5 4 3 2 3 4 2 3 3 3 5 6 7 8 8 7 7 9
3 35 34 28 22 21 18 13 20 16 16 14 9 8 9 10 7 11 7 6 7 1 4 6 8 4 8 1 2 3 4 4 4 3 3 4 4 5 5 5 5 7 6 7 7 7 7 5 5
8 30 35 28 23 23 23 23 20 17 20 17 18 9 2 7 11 11 17 15 16 15 8 3 2 7 5 6 3 4 4 5 5 5 5 6 7 5 3 5 5 5 6 6 4 6 4 3 4
19 27 26 23 23 21 27 26 27 28 20 26 14 13 14 15 15 20 20 21 20 18 18 6 6 11 5 10 16 17 9 11 1 7 8 7 7 9 6 8 7 7 5 7 5 5 3 5 6
19 18 27 17 19 20 21 26 25 24 26 24 14 15 12 11 12 14 19 21 23 21 19 19 9 6 11 15 19 19 12 6 16 18 25 15 12 13 7 8 13 9 8 8 8 11 14 13 15
21 26 26 23 19 21 22 27 28 26 21 14 20 12 15 10 7 12 12 14 19 20 19 18 12 9 12 15 18 16 24 25 14 14 22 13 1 12 13 13 15 15 19 19 15 17 13 17 17
22 23 28 26 16 19 19 28 25 18 17 16 17 14 12 11 10 9 13 12 10 11 13 12 13 6 7 10 11 15 14 21 21 15 14 12 7 14 12 15 16 17 20 17 18 18 22 16 17
16 23 23 24 16 14 15 25 27 13 15 17 17 17 17 16 13 9 9 10 9 10 10 7 10 7 4 8 7 10 13 14 17 17 17 14 26 11 9 13 16 17 21 23 19 19 18 21 18
18 17 19 22 7 13 22 27 26 25 18 20 23 22 21 22 19 15 10 10 11 8 8 7 7 7 2 5 8 9 8 11 7 10 10 10 8 4 9 14 17 18 20 22 26 28 26 25 23
31 30 31 29 18 13 20 26 26 29 32 31 24 21 20 22 20 15 14 9 10 9 9 9 7 4 1 3 4 5 6 6 9 5 7 13 6 6 6 7 11 15 19 24 27 27 29 29 23
27 30 30 31 30 31 34 37 34 32 32 33 33 26 22 22 17 17 11 10 12 11 9 8 9 6 3 1 1 5 4 5 8 7 7 7 11 8 6 8 11 12 14 18 24 27 30 30 27
25 27 30 32 32 33 34 39 35 31 28 28 27 25 22 22 17 14 13 12 12 11 10 10 10 8 7 4 2 8 13 10 10 10 9 10 9 7 7 6 10 11 13 18 18 23 27 33 29
29 28 29 31 33 35 28 47 40 36 36 27 20 21 23 21 15 14 13 11 10 11 12 11 11 10 9 7 5 3 4 7 7 7 5 3 5 6 6 7 11 13 13 17 20 18 23 24 31
31 30 32 34 37 38 36 37 41 34 33 29 20 20 19 16 19 17 18 16 13 10 10 10 10 11 10 10 7 5 4 3 3 7 7 6 6 9 12 12 10 13 15 20 22 20 19 23 25
31 36 33 35 35 39 37 33 43 32 32 33 24 14 12 12 13 16 14 14 15 17 10 9 10 11 11 11 11 8 6 5 6 2 3 5 6 7 8 9 10 16 18 19 20 21 21 22 27
23 28 38 38 34 37 35 30 35 40 25 21 18 13 16 15 13 14 14 14 15 15 11 8 9 12 12 11 11 12 12 7 7 9 4 6 8 10 6 6 8 14 17 21 24 23 21 20 24
30 31 32 38 40 46 49 47 40 29 32 23 19 19 10 11 11 12 11 13 10 10 9 11 10 13 16 16 14 13 13 12 11 9 9 9 9 13 11 11 15 17 21 22 22 24 25 24 21
37 31 24 36 42 44 46 49 48 41 32 23 24 22 18 12 11 12 10 11 8 7 8 8 9 9 10 13 14 14 14 13 13 12 10 13 14 14 14 15 18 19 21 23 24 25 27 28 27
33 33 37 31 40 42 41 40 38 35 31 19 28 36 16 16 13 12 7 6 6 5 7 6 5 7 8 11 12 13 13 13 16 13 12 14 14 13 16 17 18 21 22 23 25 25 27 28 29
37 38 33 32 38 42 45 39 29 29 31 30 23 27 32 33 17 13 13 10 11 9 11 12 15 16 13 12 13 15 15 16 17 16 16 17 17 16 18 19 20 21 24 25 25 26 28 31 31
40 42 38 42 41 36 40 52 37 44 34 37 34 43 38 26 20 17 15 15 13 16 18 19 19 21 21 20 19 19 20 20 20 20 19 19 19 19 20 21 21 22 25 26 27 28 29 32 32
Wind_Direction
244 232 224 233 250 237 242 235 294 297 286 294 280 321 355 258 273 32 187 63 83 83 82 85 81 78 87 87 82 77 80 81 75 65 58 48 45 43 43 42 42 38 34 36 38 37 38 41 44
246 241 230 243 261 250 236 232 284 276 311 296 284 354 82 94 34 42 180 88 78 83 88 80 79 80 79 86 91 88 87 82 75 76 69 62 52 45 42 38 35 34 34 31 32 35 39 42 53
245 237 250 270 259 250 272 309 297 291 285 268 291 352 308 351 64 107 127 88 81 83 82 78 76 70 76 89 94 91 87 85 78 75 71 66 63 58 48 39 35 31 30 30 24 25 35 43 56
265 268 262 263 248 252 280 305 290 280 293 272 307 351 19 64 51 88 99 89 93 89 79 84 77 78 75 77 81 87 87 83 77 68 60 59 57 59 61 48 42 33 27 20 22 22 32 47 52
246 261 248 246 255 261 302 294 298 289 299 299 312 321 348 17 44 71 84 88 83 76 73 78 78 76 74 77 81 84 86 84 73 63 55 47 48 46 46 47 44 39 32 21 15 20 23 45 47
272 257 249 252 238 277 307 305 286 294 305 317 342 346 336 29 42 60 68 80 78 61 69 68 66 66 67 69 74 79 84 85 76 55 43 40 37 36 38 41 39 37 39 27 15 21 30 39 40
235 244 249 251 247 293 300 306 290 298 305 301 317 340 11 38 113 87 66 67 56 51 55 63 62 51 51 57 62 69 75 72 56 48 37 19 23 25 22 24 24 25 29 31 24 21 31 34 31
223 240 249 248 247 300 306 300 283 289 313 314 327 327 4 40 353 39 56 47 52 67 48 47 52 45 31 13 24 38 43 50 48 32 10 6 4 6 10 11 6 9 14 19 21 23 29 29 28
271 240 242 237 248 288 327 296 295 294 301 301 299 334 32 27 0 50 55 58 51 91 74 97 91 72 56 33 10 4 1 5 5 347 337 332 327 336 351 355 6 1 1 6 10 20 29 26 25
214 225 227 260 292 292 323 315 300 298 276 303 304 330 322 326 328 347 42 29 132 107 27 25 121 107 97 47 35 4 344 335 323 313 290 290 292 310 324 332 344 348 346 349 357 8 21 25 15
277 235 239 288 294 296 300 307 292 300 292 298 299 304 304 303 309 303 312 324 334 134 333 168 163 141 39 82 115 358 329 307 289 257 254 250 273 274 304 320 322 323 328 333 338 343 349 6 12
285 270 255 284 295 285 286 290 292 295 286 314 308 334 355 313 300 297 293 305 303 325 9 77 29 321 311 11 353 90 288 256 252 265 262 280 263 282 286 304 309 323 313 312 327 339 343 325 341
294 284 288 290 295 296 282 287 285 279 291 286 301 309 302 308 303 293 293 294 302 312 325 5 326 310 43 327 319 323 318 309 227 294 259 259 275 287 283 305 299 308 316 316 294 311 313 331 314
299 302 292 299 296 293 291 286 286 286 284 285 300 295 292 291 295 295 292 292 293 298 305 314 335 345 333 321 313 320 303 310 315 315 266 275 293 297 305 301 306 303 300 303 313 304 310 313 315
298 295 293 291 295 294 292 286 282 284 288 283 290 291 293 291 282 293 296 294 294 294 293 298 320 327 329 323 314 312 301 307 323 310 278 303 94 301 296 309 299 296 302 298 304 304 307 309 309
300 297 289 291 283 290 291 287 290 284 285 287 292 292 291 290 289 292 295 300 301 295 299 294 298 318 334 333 323 314 315 312 314 319 315 315 272 299 304 299 299 296 299 300 296 298 295 304 306
301 298 295 294 279 283 283 291 289 297 285 286 290 290 289 291 290 284 283 291 290 300 302 291 300 323 342 339 339 325 321 317 316 319 321 309 303 300 318 297 295 296 295 295 300 296 296 297 301
301 296 305 303 286 280 286 286 289 292 292 285 291 289 290 290 288 286 266 267 281 277 285 289 290 305 0 1 351 341 335 333 335 320 305 307 310 356 318 307 302 299 293 296 296 294 290 290 298
294 299 294 295 314 287 288 289 290 290 289 288 284 286 287 289 292 285 281 266 276 270 264 268 262 246 289 2 7 2 0 357 336 331 39 111 95 36 13 329 308 308 299 291 289 292 290 290 306
301 298 296 295 296 294 291 289 291 291 291 288 286 284 285 289 289 283 280 280 281 275 258 254 250 218 220 276 33 11 7 0 9 4 11 39 24 32 18 338 321 320 313 305 298 293 289 289 295
302 299 298 297 299 297 297 290 293 295 291 288 282 283 281 287 283 276 274 281 282 269 258 257 242 223 214 213 236 319 331 345 354 7 1 355 18 28 12 4 337 329 320 314 312 303 296 289 290
298 301 301 301 299 296 302 290 293 297 298 297 269 281 279 276 280 277 271 273 269 266 263 256 234 227 216 219 240 260 295 329 334 340 348 43 36 17 8 352 334 331 328 322 317 315 307 304 290
300 304 301 301 298 297 295 297 296 300 296 294 281 280 283 274 277 277 277 286 285 262 248 240 238 235 226 227 261 225 266 273 327 348 15 45 17 354 342 340 338 329 326 318 316 317 314 307 304
304 302 301 301 299 292 297 296 294 301 299 296 289 262 270 269 268 280 281 285 289 282 238 241 234 239 240 232 228 264 233 222 304 245 10 346 347 341 336 336 336 326 321 319 318 316 313 310 301
298 301 297 293 293 291 299 298 296 298 320 315 318 300 297 289 277 282 283 289 292 281 264 247 250 252 242 243 246 248 275 228 251 307 285 318 326 330 321 331 337 332 328 319 312 311 312 311 308
300 300 296 297 297 294 290 292 299 307 297 301 301 311 292 284 283 279 280 288 276 274 274 271 266 267 261 260 265 264 267 275 281 276 295 299 303 317 330 330 327 326 322 323 320 311 306 305 307
300 297 301 298 296 297 294 292 291 297 300 287 294 299 289 278 277 284 277 279 267 268 271 265 277 275 266 260 262 266 267 268 274 281 278 300 306 308 311 314 315 318 321 320 321 317 305 301 300
297 303 298 293 294 292 293 293 294 304 316 315 295 261 292 286 277 277 271 261 284 271 279 300 280 274 271 272 271 272 271 271 282 284 276 289 296 295 306 309 309 311 314 317 317 317 311 305 299
298 296 298 295 292 293 294 290 296 301 315 314 306 295 295 285 278 254 266 269 249 280 277 282 283 286 283 275 275 275 272 273 278 282 282 286 292 294 295 300 304 306 307 310 312 313 310 304 301
297 295 296 292 294 293 291 284 292 289 309 319 304 287 291 290 284 268 250 244 248 261 272 281 289 290 292 290 280 274 274 275 275 277 280 283 285 288 292 295 298 301 303 304 305 307 307 303 301